THOR AGENA B DEB, 2153

Orbit data source: Space-Track

THOR AGENA B DEB, 2153 is space debris in LEO originally from a launch on Mon, 29 Nov 1965 UTC launched from the Air Force Western Test Range (AFWTR). Debris objects in space refer to the collection of defunct objects orbiting the Earth. Examples of debris include non-operational satellites, rocket bodies, and fragments generated from explosions, collisions, or faulty payload assembly.

Loading next visibility...
Identifier
2153, 1965-098J
Orbit
LEO
Last TLE update
14 hours ago
Origin
Manufacturer
Unknown
Mission
Spacecraft
Bus & Motor
Unknown
Mass
~1 kg wet, ~1 kg dry
Launch date (UTC)
1965-11-29 (59 years ago)
Launch vehicle
Unknown
Launch site
Air Force Western Test Range (AFWTR)
Object type
Payload
Rocket body
Debris
Shape & HBR
Ann Cyl, 0.2 m
Radar Cross Section
0.031 m², Small (<0.1 m²)

Expand to show TLE details & history

TLE from 14 hours ago
0 THOR AGENA B DEB
1 02153U 65098J   25138.85579650  .00001105  00000-0  34634-3 0  9993
2 02153  79.7446  56.4410 1283627 139.5777 299.0280 12.38401254638207
Epoch: 2025-05-18T20:32Z
TLE epoch observation values (Epoch: 2025-05-18T20:32:20.817Z)
Latitude
63.00703°
Longitude
-107.72878°
Altitude
1,140.974 km
Speed
7.464 km/s
True Right ascension
05h 08m 32s
True Declination
62° 52' 29"
Sunlit
Object was in daylight at epoch
Visualization orbit readout
Latitude
-76.65935°
Longitude
100.47101°
Altitude
1,993.869 km
Speed
6.699 km/s
Apparent Right ascension
08h 21m 46s
Apparent Declination
-76° 01' 31"
Sunlit
Object is in daylight
Visualization observer readout
Local Sidereal Time
19:50:31
Azimuth
183.18° SSW
Elevation
-53.724°
Doppler factor
1
Orbital elements
Apogee altitude
2,523.45 km
Perigee altitude
498.159 km
Semi-major axis
7,888.941 km
Eccentricity
0.12836
Inclination
79.7446°
RAAN
56.441°
Arg. of periapsis
139.5777°
True anomaly
Unknown
Mean anomaly
299.028°
Eccentric anomaly
Unknown
Mean motion
3.09753 °/min
Orbital period
116.22 mins
BSTAR
0.00034634
Loading maneuver chart data...
Loading SW <> Apogee altitude chart data...
Loading historical data...
Loading historical data...
Loading historical data...
Loading historical data...
Loading historical data...
Loading historical data...
Loading historical data...

THOR AGENA B DEB Visibility forecast

Observer location: undefined°, undefined°

Span
Click to sort rows by Start time (UTC) header in descending order
Start Az.
Max El. time (UTC)
Max El. Az.
Max El.
End time (UTC)
End Az.
12 mins2025-05-19 17:36:30.934Z133.505° SE2025-05-19 17:43:30.934Z90.609° ESE20.637°2025-05-19 17:48:30.934Z48.978° ENE
16 mins2025-05-19 19:31:30.934Z195.894° SSW2025-05-19 19:40:30.934Z252.237° W43.923°2025-05-19 19:47:30.934Z6.573° NNE
5 mins2025-05-19 21:36:30.934Z276.332° WNW2025-05-19 21:38:30.934Z290.189° WNW13.246°2025-05-19 21:41:30.934Z313.983° NW
5 mins2025-05-20 05:47:30.934Z19.958° NNE2025-05-20 05:49:30.934Z92.45° ESE32.457°2025-05-20 05:52:30.934Z146.974° SSE
|